• In Hungary
  • List of Countries
  • For 7 days
  • Water Temperature
  • Satellite Maps
  • Weather Map
  • News
  • Weather Widgets
  • user-avatar
    Login

    Hourly Weather Velikaya Lepetiha

    Today, 22 September, Saturday

    Time Temperature Precipitation Wind Pressure Humidity
    00:00 +23°C° 0 mm 1 mps 758 mmHg 50%
    01:00 +22°C° 0 mm 1 mps 758 mmHg 52%
    02:00 +22°C° 0 mm 1 mps 758 mmHg 53%
    03:00 +21°C° 0 mm 1 mps 758 mmHg 55%
    04:00 +21°C° 0 mm 1 mps 758 mmHg 56%
    05:00 +21°C° 0 mm 1 mps 758 mmHg 57%
    06:00 +22°C° 0 mm 1 mps 758 mmHg 54%
    07:00 +23°C° 0 mm 2 mps 758 mmHg 50%
    08:00 +25°C° 0 mm 2 mps 758 mmHg 47%
    09:00 +26°C° 0 mm 2 mps 758 mmHg 42%
    10:00 +28°C° 0 mm 2 mps 758 mmHg 37%
    11:00 +29°C° 0 mm 3 mps 757 mmHg 32%
    12:00 +30°C° 0 mm 3 mps 757 mmHg 30%
    13:00 +30°C° 0 mm 2 mps 757 mmHg 28%
    14:00 +31°C° 0 mm 2 mps 757 mmHg 26%
    15:00 +30°C° 0 mm 2 mps 756 mmHg 28%
    16:00 +29°C° 0 mm 2 mps 756 mmHg 30%
    17:00 +29°C° 0 mm 2 mps 756 mmHg 32%
    18:00 +27°C° 0 mm 3 mps 756 mmHg 37%
    19:00 +25°C° 0 mm 3 mps 756 mmHg 41%
    20:00 +22°C° 0 mm 3 mps 756 mmHg 46%
    21:00 +22°C° 0 mm 3 mps 756 mmHg 48%
    22:00 +21°C° 0 mm 3 mps 756 mmHg 50%
    23:00 +20°C° 0 mm 3 mps 756 mmHg 52%

    Tomorrow, 23 September, Sunday

    Time Temperature Precipitation Wind Pressure Humidity
    00:00 +20°C° 0 mm 3 mps 755 mmHg 53%
    01:00 +20°C° 0 mm 3 mps 755 mmHg 54%
    02:00 +20°C° 0 mm 3 mps 755 mmHg 54%
    03:00 +19°C° 0 mm 3 mps 755 mmHg 56%
    04:00 +19°C° 0 mm 3 mps 755 mmHg 57%
    05:00 +19°C° 0 mm 3 mps 755 mmHg 58%
    06:00 +19°C° 0.1 mm 3 mps 755 mmHg 61%
    07:00 +19°C° 0.1 mm 4 mps 755 mmHg 63%
    08:00 +19°C° 0.1 mm 5 mps 756 mmHg 66%
    09:00 +17°C° 0.5 mm 5 mps 756 mmHg 69%
    10:00 +16°C° 0.5 mm 5 mps 756 mmHg 71%
    11:00 +16°C° 0.5 mm 5 mps 757 mmHg 74%
    12:00 +17°C° 0 mm 5 mps 757 mmHg 67%
    13:00 +19°C° 0 mm 5 mps 757 mmHg 59%
    14:00 +20°C° 0 mm 5 mps 757 mmHg 52%
    15:00 +20°C° 0 mm 5 mps 757 mmHg 49%
    16:00 +19°C° 0 mm 4 mps 757 mmHg 45%
    17:00 +19°C° 0 mm 4 mps 757 mmHg 42%
    18:00 +18°C° 0 mm 3 mps 758 mmHg 45%
    19:00 +17°C° 0 mm 2 mps 758 mmHg 48%
    20:00 +16°C° 0 mm 1 mps 759 mmHg 50%
    21:00 +16°C° 0 mm 1 mps 759 mmHg 51%
    22:00 +15°C° 0 mm 1 mps 759 mmHg 52%
    23:00 +15°C° 0 mm 1 mps 759 mmHg 53%

    Day after tomorrow, 24 September, Monday

    Time Temperature Precipitation Wind Pressure Humidity
    00:00 +15°C° 0 mm 1 mps 759 mmHg 53%
    01:00 +15°C° 0 mm 2 mps 759 mmHg 54%
    02:00 +14°C° 0 mm 2 mps 758 mmHg 54%
    03:00 +14°C° 0 mm 2 mps 758 mmHg 55%
    04:00 +13°C° 0 mm 3 mps 758 mmHg 55%
    05:00 +13°C° 0 mm 3 mps 757 mmHg 56%
    06:00 +14°C° 0 mm 4 mps 757 mmHg 52%
    07:00 +16°C° 0 mm 5 mps 757 mmHg 49%
    08:00 +17°C° 0 mm 6 mps 757 mmHg 46%
    09:00 +20°C° 0 mm 7 mps 756 mmHg 43%
    10:00 +21°C° 0 mm 8 mps 756 mmHg 39%
    11:00 +22°C° 0 mm 9 mps 755 mmHg 36%
    12:00 +23°C° 0 mm 9 mps 754 mmHg 36%
    13:00 +24°C° 0 mm 9 mps 753 mmHg 37%
    14:00 +26°C° 0 mm 9 mps 752 mmHg 37%
    15:00 +24°C° 0 mm 9 mps 752 mmHg 43%
    16:00 +23°C° 0 mm 9 mps 752 mmHg 48%
    17:00 +23°C° 0 mm 9 mps 751 mmHg 53%
    18:00 +21°C° 0.6 mm 9 mps 752 mmHg 60%
    19:00 +18°C° 0.6 mm 9 mps 753 mmHg 66%
    20:00 +16°C° 0.6 mm 9 mps 753 mmHg 73%
    21:00 +15°C° 0.5 mm 8 mps 754 mmHg 69%
    22:00 +15°C° 0.5 mm 7 mps 754 mmHg 65%
    23:00 +14°C° 0.5 mm 6 mps 755 mmHg 61%

    25 September, Tuesday

    Time Temperature Precipitation Wind Pressure Humidity
    00:00 +13°C° 0 mm 6 mps 755 mmHg 63%
    01:00 +12°C° 0 mm 5 mps 755 mmHg 64%
    02:00 +12°C° 0 mm 5 mps 756 mmHg 65%
    03:00 +10°C° 0 mm 5 mps 756 mmHg 67%
    04:00 +10°C° 0 mm 5 mps 756 mmHg 68%
    05:00 +9°C° 0 mm 5 mps 757 mmHg 70%
    06:00 +10°C° 0 mm 6 mps 757 mmHg 65%
    07:00 +10°C° 0 mm 6 mps 757 mmHg 61%
    08:00 +11°C° 0 mm 7 mps 757 mmHg 57%
    09:00 +12°C° 0 mm 7 mps 758 mmHg 54%
    10:00 +14°C° 0 mm 7 mps 758 mmHg 50%
    11:00 +15°C° 0 mm 7 mps 758 mmHg 46%
    12:00 +15°C° 0 mm 7 mps 758 mmHg 46%
    13:00 +15°C° 0 mm 7 mps 758 mmHg 45%
    14:00 +15°C° 0 mm 7 mps 758 mmHg 44%
    15:00 +14°C° 0.2 mm 7 mps 758 mmHg 46%
    16:00 +14°C° 0.2 mm 7 mps 759 mmHg 49%
    17:00 +12°C° 0.2 mm 7 mps 759 mmHg 51%
    18:00 +13°C° 0 mm 6 mps 760 mmHg 52%
    19:00 +12°C° 0 mm 5 mps 761 mmHg 54%
    20:00 +10°C° 0 mm 5 mps 761 mmHg 55%
    21:00 +10°C° 0 mm 5 mps 762 mmHg 55%
    22:00 +9°C° 0 mm 5 mps 762 mmHg 56%
    23:00 +8°C° 0 mm 5 mps 762 mmHg 57%

    26 September, Wednesday

    Time Temperature Precipitation Wind Pressure Humidity
    00:00 +8°C° 0 mm 5 mps 762 mmHg 58%
    01:00 +7°C° 0 mm 4 mps 763 mmHg 60%
    02:00 +7°C° 0 mm 4 mps 763 mmHg 62%
    03:00 +7°C° 0 mm 4 mps 763 mmHg 63%
    04:00 +6°C° 0 mm 4 mps 763 mmHg 65%
    05:00 +6°C° 0 mm 4 mps 764 mmHg 67%
    06:00 +7°C° 0 mm 4 mps 764 mmHg 63%
    07:00 +8°C° 0 mm 4 mps 764 mmHg 59%
    08:00 +8°C° 0 mm 4 mps 764 mmHg 55%
    09:00 +11°C° 0 mm 4 mps 764 mmHg 48%
    10:00 +12°C° 0 mm 4 mps 763 mmHg 42%
    11:00 +14°C° 0 mm 4 mps 763 mmHg 36%
    12:00 +14°C° 0 mm 4 mps 763 mmHg 33%
    13:00 +15°C° 0 mm 4 mps 762 mmHg 31%
    14:00 +17°C° 0 mm 4 mps 762 mmHg 29%
    15:00 +15°C° 0 mm 4 mps 762 mmHg 31%
    16:00 +15°C° 0 mm 4 mps 762 mmHg 32%
    17:00 +14°C° 0 mm 4 mps 762 mmHg 34%
    18:00 +14°C° 0 mm 4 mps 762 mmHg 37%
    19:00 +13°C° 0 mm 4 mps 762 mmHg 40%
    20:00 +12°C° 0 mm 3 mps 762 mmHg 43%
    21:00 +11°C° 0 mm 3 mps 762 mmHg 50%
    22:00 +10°C° 0 mm 3 mps 762 mmHg 56%
    23:00 +9°C° 0 mm 2 mps 762 mmHg 62%

    27 September, Thursday

    Time Temperature Precipitation Wind Pressure Humidity
    00:00 +9°C° 0 mm 2 mps 763 mmHg 66%
    01:00 +8°C° 0 mm 2 mps 763 mmHg 69%
    02:00 +8°C° 0 mm 2 mps 763 mmHg 73%
    03:00 +8°C° 0 mm 2 mps 763 mmHg 74%
    04:00 +7°C° 0 mm 2 mps 763 mmHg 76%
    05:00 +7°C° 0 mm 2 mps 763 mmHg 78%
    06:00 +8°C° 0 mm 2 mps 764 mmHg 72%
    07:00 +10°C° 0 mm 2 mps 764 mmHg 66%
    08:00 +11°C° 0 mm 3 mps 765 mmHg 60%
    09:00 +12°C° 0 mm 3 mps 765 mmHg 52%
    10:00 +15°C° 0 mm 2 mps 765 mmHg 44%
    11:00 +16°C° 0 mm 2 mps 765 mmHg 37%
    12:00 +17°C° 0 mm 2 mps 764 mmHg 34%
    13:00 +18°C° 0 mm 3 mps 764 mmHg 32%
    14:00 +18°C° 0 mm 3 mps 763 mmHg 29%
    15:00 +18°C° 0 mm 3 mps 763 mmHg 30%
    16:00 +17°C° 0 mm 3 mps 763 mmHg 32%
    17:00 +17°C° 0 mm 2 mps 763 mmHg 33%
    18:00 +16°C° 0 mm 2 mps 763 mmHg 35%
    19:00 +14°C° 0 mm 2 mps 763 mmHg 37%
    20:00 +13°C° 0 mm 2 mps 763 mmHg 39%
    21:00 +13°C° 0 mm 2 mps 763 mmHg 40%
    22:00 +12°C° 0 mm 2 mps 763 mmHg 41%
    23:00 +12°C° 0 mm 2 mps 762 mmHg 42%
    Show more